sat.trackr.live / text

‹ back to catalog

STARLINK-34278

NORAD 64391 · 2025-127X

PAYLOAD ACTIVE UNKNOWN

§ Identity

Operator
Country
US
Launch date
2025-06-13
Launch site
AFETR
Launch vehicle
Mass (kg)
RCS (m²)

Purposes: comms

External: N2YO · Heavens-Above · Gunter

§ Orbital elements

Epoch: 2026-09-20T10:20:40.644672Z

Period
94.27 min
Inclination
43.0024°
Eccentricity
0.0001986
Mean motion
15.27597500 rev/d
Perigee alt
481.6 km
Apogee alt
484.4 km
Semi-major
6,861.1 km
B*
6.3846e-4
RAAN
159.6893°
Arg perigee
269.2727°
Mean anomaly
90.7897°
Rev number
7,225

§ Raw data

STARLINK-342781 64391U 25127X   26263.43102598  .00017358  00000+0  63846-3 0  99942 64391  43.0024 159.6893 0001986 269.2727  90.7897 15.27597500 72255

JSON: /api/v1/satellites/64391 · /tle

For live sub-satellite position, see the globe view (requires WebGL).

§ Visibility from observer

Set your observer location to see the next 7 days of passes ≥ 10°. The values pass through the URL so the page stays shareable.

No JS? Fill the form by hand. The geolocation button needs JavaScript.